| time (UTC) | temp F | wind direction | speed MPH | gust MPH | rain 1hr in | rain 24hr in | rain mn in | humidity % | barometer mb |
| 20260506033546 | 54 | 191 | 3.0 | 6.0 | 0.00 | 0.84 | 0.71 | 99 | 986.0 |
| 20260506032542 | 55 | 225 | 3.0 | 6.0 | 0.00 | 0.84 | 0.71 | 99 | 986.0 |
| 20260506031538 | 55 | 209 | 3.0 | 8.0 | 0.00 | 0.84 | 0.71 | 99 | 986.1 |
| 20260506030534 | 55 | 205 | 3.0 | 7.0 | 0.00 | 0.84 | 0.71 | 98 | 986.1 |
| 20260506025531 | 55 | 208 | 4.0 | 7.0 | 0.00 | 0.84 | 0.71 | 98 | 986.3 |
| 20260506024527 | 55 | 145 | 3.0 | 7.0 | 0.00 | 0.84 | 0.71 | 98 | 986.2 |
| 20260506023523 | 55 | 118 | 3.0 | 6.0 | 0.00 | 0.84 | 0.71 | 98 | 986.4 |
| 20260506022519 | 55 | 105 | 3.0 | 4.0 | 0.00 | 0.84 | 0.71 | 98 | 986.4 |
| 20260506021516 | 55 | 110 | 2.0 | 6.0 | 0.00 | 0.84 | 0.71 | 98 | 986.5 |
| 20260506020612 | 55 | 90 | 2.0 | 6.0 | 0.00 | 0.84 | 0.71 | 98 | 986.5 |
| 20260506015608 | 55 | 110 | 3.0 | 4.0 | 0.00 | 0.84 | 0.71 | 98 | 986.7 |
| 20260506014604 | 55 | 155 | 3.0 | 4.0 | 0.00 | 0.84 | 0.71 | 98 | 986.8 |
| 20260506013601 | 54 | 136 | 2.0 | 4.0 | 0.00 | 0.84 | 0.71 | 98 | 986.9 |
| 20260506012557 | 54 | 184 | 1.0 | 2.0 | 0.00 | 0.84 | 0.71 | 97 | 986.9 |
| 20260506011553 | 54 | 203 | 2.0 | 4.0 | 0.00 | 0.84 | 0.71 | 97 | 987.0 |
| 20260506010549 | 54 | 210 | 2.0 | 4.0 | 0.02 | 0.84 | 0.71 | 97 | 986.9 |
| 20260506005545 | 54 | 131 | 1.0 | 4.0 | 0.02 | 0.84 | 0.71 | 97 | 986.7 |
| 20260506004542 | 54 | 60 | 1.0 | 4.0 | 0.04 | 0.84 | 0.71 | 96 | 986.4 |
| 20260506003538 | 54 | 54 | 5.0 | 9.0 | 0.05 | 0.84 | 0.71 | 96 | 986.1 |
| 20260506002534 | 54 | 48 | 8.0 | 14.0 | 0.05 | 0.84 | 0.71 | 96 | 986.0 |
| 20260506001530 | 54 | 42 | 7.0 | 11.0 | 0.06 | 0.84 | 0.71 | 96 | 986.1 |
| 20260506000527 | 54 | 23 | 6.0 | 9.0 | 0.05 | 0.81 | 0.69 | 96 | 986.0 |
| 20260505235523 | 54 | 41 | 7.0 | 13.0 | 0.09 | 0.81 | 0.69 | 96 | 986.9 |
| 20260505234519 | 54 | 43 | 5.0 | 11.0 | 0.37 | 0.80 | 0.67 | 96 | 987.3 |
| 20260505233515 | 54 | 39 | 6.0 | 11.0 | 0.41 | 0.79 | 0.66 | 97 | 987.5 |
| 20260505232612 | 54 | 50 | 5.0 | 8.0 | 0.48 | 0.79 | 0.66 | 97 | 987.7 |
| 20260505231608 | 55 | 34 | 5.0 | 11.0 | 0.53 | 0.78 | 0.65 | 97 | 988.1 |
| 20260505230604 | 55 | 44 | 4.0 | 6.0 | 0.54 | 0.77 | 0.64 | 97 | 988.5 |
| 20260505225600 | 55 | 62 | 2.0 | 4.0 | 0.59 | 0.72 | 0.59 | 97 | 988.6 |
| 20260505224557 | 56 | 182 | 5.0 | 8.0 | 0.38 | 0.44 | 0.31 | 97 | 989.2 |
| 20260505223553 | 55 | 300 | 1.0 | 2.0 | 0.32 | 0.38 | 0.25 | 96 | 988.5 |
| 20260505222549 | 55 | 8 | 1.0 | 4.0 | 0.25 | 0.31 | 0.18 | 96 | 988.0 |
| 20260505221545 | 56 | 44 | 3.0 | 7.0 | 0.19 | 0.25 | 0.12 | 95 | 988.2 |
| 20260505220542 | 56 | 33 | 2.0 | 7.0 | 0.17 | 0.22 | 0.09 | 94 | 988.2 |
| 20260505215538 | 57 | 26 | 5.0 | 8.0 | 0.07 | 0.13 | 0.13 | 93 | 988.3 |
| 20260505214534 | 57 | 28 | 4.0 | 8.0 | 0.00 | 0.06 | 0.06 | 92 | 988.7 |
| 20260505213530 | 57 | 36 | 3.0 | 6.0 | 0.00 | 0.06 | 0.06 | 92 | 988.7 |
| 20260505212529 | 57 | 44 | 2.0 | 4.0 | 0.00 | 0.06 | 0.06 | 92 | 988.7 |
| 20260505211523 | 58 | 32 | 3.0 | 4.0 | 0.00 | 0.06 | 0.06 | 91 | 988.7 |
| 20260505210519 | 58 | 52 | 4.0 | 8.0 | 0.00 | 0.06 | 0.06 | 91 | 988.7 |
| 20260505205515 | 58 | 45 | 3.0 | 8.0 | 0.00 | 0.06 | 0.06 | 91 | 988.3 |
| 20260505204612 | 58 | 36 | 5.0 | 11.0 | 0.00 | 0.06 | 0.06 | 90 | 988.0 |
| 20260505203608 | 58 | 49 | 4.0 | 11.0 | 0.00 | 0.06 | 0.06 | 90 | 987.9 |
| 20260505202604 | 58 | 27 | 4.0 | 8.0 | 0.00 | 0.06 | 0.06 | 90 | 987.9 |
| 20260505201600 | 58 | 45 | 3.0 | 4.0 | 0.00 | 0.06 | 0.06 | 89 | 987.9 |
| 20260505200557 | 59 | 45 | 5.0 | 9.0 | 0.00 | 0.06 | 0.06 | 89 | 987.6 |
| 20260505195553 | 59 | 43 | 5.0 | 11.0 | 0.00 | 0.06 | 0.06 | 88 | 987.7 |
| 20260505194549 | 59 | 33 | 5.0 | 8.0 | 0.00 | 0.06 | 0.06 | 87 | 987.9 |
| 20260505193546 | 60 | 31 | 4.0 | 7.0 | 0.00 | 0.06 | 0.06 | 86 | 988.1 |
| 20260505192542 | 60 | 45 | 5.0 | 11.0 | 0.00 | 0.06 | 0.06 | 85 | 988.0 |
| 20260505191538 | 60 | 56 | 5.0 | 8.0 | 0.00 | 0.06 | 0.06 | 84 | 987.9 |
| 20260505190534 | 60 | 58 | 4.0 | 8.0 | 0.00 | 0.06 | 0.06 | 84 | 988.1 |
| 20260505185530 | 60 | 41 | 3.0 | 6.0 | 0.00 | 0.06 | 0.06 | 83 | 988.1 |
| 20260505184527 | 61 | 33 | 4.0 | 6.0 | 0.00 | 0.06 | 0.06 | 83 | 988.2 |
| 20260505183523 | 61 | 53 | 3.0 | 7.0 | 0.00 | 0.06 | 0.06 | 83 | 988.3 |
| 20260505182519 | 61 | 55 | 2.0 | 6.0 | 0.00 | 0.06 | 0.06 | 83 | 988.3 |
| 20260505181515 | 61 | 52 | 3.0 | 6.0 | 0.00 | 0.06 | 0.06 | 83 | 988.3 |
| 20260505180612 | 62 | 37 | 2.0 | 4.0 | 0.00 | 0.06 | 0.06 | 83 | 988.4 |
| 20260505175608 | 62 | 40 | 3.0 | 6.0 | 0.00 | 0.06 | 0.06 | 82 | 988.3 |
| 20260505174604 | 62 | 33 | 4.0 | 8.0 | 0.00 | 0.06 | 0.06 | 82 | 988.5 |
| 20260505173600 | 62 | 34 | 4.0 | 8.0 | 0.00 | 0.06 | 0.06 | 82 | 988.4 |
| 20260505172556 | 62 | 30 | 3.0 | 7.0 | 0.00 | 0.06 | 0.06 | 82 | 988.4 |
| 20260505171553 | 63 | 25 | 4.0 | 7.0 | 0.00 | 0.06 | 0.06 | 82 | 988.5 |
| 20260505170549 | 63 | 46 | 4.0 | 8.0 | 0.00 | 0.06 | 0.06 | 83 | 988.5 |
| 20260505165545 | 63 | 38 | 4.0 | 7.0 | 0.00 | 0.06 | 0.06 | 84 | 988.6 |
| 20260505164541 | 63 | 31 | 3.0 | 6.0 | 0.00 | 0.06 | 0.06 | 83 | 988.5 |
| 20260505163537 | 64 | 44 | 4.0 | 8.0 | 0.00 | 0.06 | 0.06 | 83 | 988.6 |
| 20260505162533 | 64 | 42 | 4.0 | 6.0 | 0.00 | 0.06 | 0.06 | 82 | 988.9 |
| 20260505161530 | 64 | 34 | 3.0 | 7.0 | 0.00 | 0.06 | 0.06 | 81 | 988.9 |
| 20260505160526 | 64 | 57 | 6.0 | 11.0 | 0.00 | 0.06 | 0.06 | 80 | 988.9 |
| 20260505152611 | 64 | 37 | 4.0 | 11.0 | 0.00 | 0.06 | 0.06 | 82 | 989.2 |
| 20260505151607 | 63 | 72 | 2.0 | 4.0 | 0.00 | 0.06 | 0.06 | 84 | 989.3 |
| 20260505150603 | 63 | 35 | 4.0 | 7.0 | 0.00 | 0.06 | 0.06 | 83 | 989.4 |
| 20260505140540 | 63 | 32 | 4.0 | 7.0 | 0.00 | 0.06 | 0.06 | 84 | 989.8 |
| 20260505124610 | 64 | 355 | 2.0 | 8.0 | 0.00 | 0.06 | 0.06 | 82 | 990.3 |
| 20260505123607 | 64 | 341 | 3.0 | 8.0 | 0.00 | 0.06 | 0.06 | 83 | 990.3 |
| 20260505122603 | 64 | 35 | 2.0 | 4.0 | 0.00 | 0.06 | 0.06 | 80 | 990.4 |
| 20260505121559 | 64 | 27 | 3.0 | 6.0 | 0.00 | 0.06 | 0.06 | 77 | 990.4 |
| 20260505120555 | 64 | 42 | 5.0 | 11.0 | 0.00 | 0.06 | 0.06 | 78 | 990.5 |
| 20260505115551 | 64 | 27 | 4.0 | 9.0 | 0.00 | 0.06 | 0.06 | 79 | 990.3 |
| 20260505114548 | 64 | 30 | 3.0 | 7.0 | 0.00 | 0.06 | 0.06 | 78 | 990.5 |
| 20260505113544 | 64 | 9 | 3.0 | 6.0 | 0.00 | 0.06 | 0.06 | 80 | 990.5 |
| 20260505112540 | 63 | 321 | 3.0 | 4.0 | 0.00 | 0.06 | 0.06 | 88 | 990.7 |
| 20260505111536 | 62 | 315 | 2.0 | 7.0 | 0.00 | 0.06 | 0.06 | 91 | 990.6 |
| 20260505110532 | 62 | 305 | 2.0 | 4.0 | 0.00 | 0.06 | 0.06 | 90 | 990.8 |
| 20260505101613 | 60 | 16 | 1.0 | 4.0 | 0.00 | 0.06 | 0.06 | 95 | 991.1 |
| 20260505100609 | 59 | 333 | 2.0 | 4.0 | 0.00 | 0.06 | 0.06 | 96 | 991.1 |
| 20260505095606 | 59 | 311 | 3.0 | 4.0 | 0.01 | 0.06 | 0.06 | 96 | 991.1 |
| 20260505094602 | 58 | 47 | 2.0 | 4.0 | 0.01 | 0.06 | 0.06 | 96 | 991.2 |
| 20260505093558 | 58 | 86 | 2.0 | 4.0 | 0.01 | 0.06 | 0.06 | 96 | 991.1 |
| 20260505092554 | 58 | 86 | 2.0 | 4.0 | 0.01 | 0.06 | 0.06 | 97 | 991.0 |
| 20260505091550 | 58 | 0.0 | 2.0 | 0.01 | 0.06 | 0.06 | 97 | 991.1 | |
| 20260505090547 | 58 | 0.0 | 2.0 | 0.01 | 0.06 | 0.06 | 97 | 991.1 | |
| 20260505085543 | 57 | 48 | 1.0 | 2.0 | 0.00 | 0.05 | 0.05 | 97 | 991.1 |
| 20260505084539 | 57 | 37 | 3.0 | 6.0 | 0.00 | 0.05 | 0.05 | 97 | 990.8 |
| 20260505083535 | 58 | 29 | 1.0 | 4.0 | 0.01 | 0.05 | 0.05 | 97 | 991.1 |
| 20260505082532 | 57 | 21 | 2.0 | 4.0 | 0.01 | 0.05 | 0.05 | 97 | 991.1 |
| 20260505081528 | 57 | 16 | 2.0 | 4.0 | 0.01 | 0.05 | 0.05 | 96 | 991.3 |
| 20260505080524 | 57 | 27 | 1.0 | 2.0 | 0.01 | 0.05 | 0.05 | 96 | 991.2 |
| 20260505075520 | 57 | 320 | 1.0 | 2.0 | 0.01 | 0.05 | 0.05 | 96 | 991.3 |
| 20260505074516 | 57 | 299 | 2.0 | 4.0 | 0.02 | 0.05 | 0.05 | 96 | 991.3 |
| 20260505073613 | 58 | 358 | 0.0 | 2.0 | 0.02 | 0.04 | 0.04 | 95 | 991.4 |
| 20260505072609 | 57 | 284 | 2.0 | 4.0 | 0.02 | 0.04 | 0.04 | 95 | 991.6 |
| 20260505071605 | 58 | 237 | 2.0 | 2.0 | 0.02 | 0.04 | 0.04 | 95 | 991.7 |
| 20260505070601 | 58 | 243 | 1.0 | 2.0 | 0.04 | 0.04 | 0.04 | 94 | 991.7 |
| 20260505065558 | 58 | 304 | 0.0 | 2.0 | 0.04 | 0.04 | 0.04 | 94 | 991.6 |
| 20260505064554 | 57 | 315 | 0.0 | 2.0 | 0.02 | 0.02 | 0.02 | 93 | 991.5 |
| 20260505063550 | 57 | 315 | 1.0 | 2.0 | 0.01 | 0.01 | 0.01 | 93 | 991.7 |
| 20260505062546 | 57 | 315 | 1.0 | 2.0 | 0.01 | 0.01 | 0.01 | 92 | 991.6 |
| 20260505061543 | 57 | 280 | 1.0 | 2.0 | 0.01 | 0.01 | 0.01 | 92 | 991.6 |
| 20260505060539 | 57 | 223 | 2.0 | 2.0 | 0.00 | 0.00 | 0.00 | 91 | 991.6 |
| 20260505055535 | 57 | 225 | 1.0 | 2.0 | 0.00 | 0.00 | 0.00 | 90 | 991.5 |
| 20260505054531 | 57 | 325 | 1.0 | 2.0 | 0.00 | 0.00 | 0.00 | 89 | 991.4 |
| 20260505053528 | 59 | 308 | 4.0 | 6.0 | 0.00 | 0.00 | 0.00 | 86 | 991.4 |
| 20260505052524 | 59 | 44 | 2.0 | 4.0 | 0.00 | 0.00 | 0.00 | 84 | 991.1 |
| 20260505051520 | 59 | 58 | 2.0 | 4.0 | 0.00 | 0.00 | 0.00 | 84 | 991.2 |
| 20260505050516 | 58 | 53 | 3.0 | 4.0 | 0.00 | 0.00 | 0.00 | 85 | 991.1 |
| 20260505041557 | 58 | 51 | 2.0 | 4.0 | 0.00 | 0.00 | 0.00 | 84 | 991.2 |
| 20260505040553 | 57 | 57 | 1.0 | 2.0 | 0.00 | 0.00 | 0.00 | 87 | 991.3 |
| 20260505035550 | 57 | 23 | 0.0 | 2.0 | 0.00 | 0.00 | 0.00 | 87 | 991.2 |
| 20260505034546 | 59 | 323 | 1.0 | 4.0 | 0.00 | 0.00 | 0.00 | 81 | 991.3 |